Time,TemperatureF,DewpointF,PressureIn,WindDirection,WindDirectionDegrees,WindSpeedMPH,WindSpeedGustMPH,Humidity,HourlyPrecipIn,Conditions,Clouds,dailyrainin,SoftwareType,DateUTC
2013-05-28 00:01:00,54.0,45.5,30.17,SE,135,1.0,1.0,73,0.00,,---,0.00,VWS V14.01,2013-05-28 04:01:00,
2013-05-28 00:05:00,54.0,45.5,30.17,ENE,68,1.0,2.0,73,0.00,,---,0.00,VWS V14.01,2013-05-28 04:05:00,
2013-05-28 00:10:00,54.0,45.2,30.17,East,90,0.0,2.0,72,0.00,,---,0.00,VWS V14.01,2013-05-28 04:10:00,
2013-05-28 00:15:00,54.0,45.5,30.17,SSW,202,0.0,2.0,73,0.00,,---,0.00,VWS V14.01,2013-05-28 04:15:00,
2013-05-28 00:20:00,54.0,45.5,30.17,SE,135,0.0,2.0,73,0.00,,---,0.00,VWS V14.01,2013-05-28 04:20:00,
2013-05-28 00:26:00,54.0,45.9,30.17,SE,135,3.0,3.0,74,0.00,,---,0.00,VWS V14.01,2013-05-28 04:26:00,
2013-05-28 00:31:00,54.0,45.9,30.17,SE,135,2.0,5.0,74,0.00,,---,0.00,VWS V14.01,2013-05-28 04:31:00,
2013-05-28 00:36:00,53.0,44.6,30.16,SE,135,3.0,5.0,73,0.00,,---,0.00,VWS V14.01,2013-05-28 04:36:00,
2013-05-28 00:41:00,53.0,44.6,30.16,SE,135,6.0,6.0,73,0.00,,---,0.00,VWS V14.01,2013-05-28 04:41:00,
2013-05-28 00:46:00,53.0,44.2,30.16,SSE,158,5.0,6.0,72,0.00,,---,0.00,VWS V14.01,2013-05-28 04:46:00,
2013-05-28 00:51:00,53.0,43.5,30.16,SE,135,3.0,7.0,70,0.00,,---,0.00,VWS V14.01,2013-05-28 04:51:00,
2013-05-28 00:56:00,54.0,44.1,30.16,SSE,158,3.0,7.0,69,0.00,,---,0.00,VWS V14.01,2013-05-28 04:56:00,
2013-05-28 01:01:00,54.0,43.7,30.16,SSE,158,3.0,7.0,68,0.00,,---,0.00,VWS V14.01,2013-05-28 05:01:00,
2013-05-28 01:06:00,54.0,42.9,30.16,ENE,68,1.0,4.0,66,0.00,,---,0.00,VWS V14.01,2013-05-28 05:06:00,
2013-05-28 01:11:00,54.0,42.9,30.16,SE,135,1.0,4.0,66,0.00,,---,0.00,VWS V14.01,2013-05-28 05:11:00,
2013-05-28 01:16:00,54.0,43.3,30.16,East,90,1.0,4.0,67,0.00,,---,0.00,VWS V14.01,2013-05-28 05:16:00,
2013-05-28 01:21:00,54.0,43.3,30.16,ESE,112,1.0,2.0,67,0.00,,---,0.00,VWS V14.01,2013-05-28 05:21:00,
2013-05-28 01:26:00,54.0,43.3,30.16,East,90,1.0,4.0,67,0.00,,---,0.00,VWS V14.01,2013-05-28 05:26:00,
2013-05-28 01:32:00,54.0,42.9,30.15,East,90,0.0,4.0,66,0.00,,---,0.00,VWS V14.01,2013-05-28 05:32:00,
2013-05-28 01:37:00,54.0,42.9,30.15,ESE,112,2.0,4.0,66,0.00,,---,0.00,VWS V14.01,2013-05-28 05:37:00,
2013-05-28 01:42:00,54.0,42.9,30.15,ENE,68,2.0,3.0,66,0.00,,---,0.00,VWS V14.01,2013-05-28 05:42:00,
2013-05-28 01:47:00,54.0,43.3,30.15,East,90,1.0,4.0,67,0.00,,---,0.00,VWS V14.01,2013-05-28 05:47:00,
2013-05-28 01:52:00,54.0,44.1,30.14,ESE,112,1.0,4.0,69,0.00,,---,0.00,VWS V14.01,2013-05-28 05:52:00,
2013-05-28 01:57:00,54.0,44.5,30.14,SE,135,1.0,4.0,70,0.00,,---,0.00,VWS V14.01,2013-05-28 05:57:00,
2013-05-28 02:02:00,54.0,45.2,30.14,SSE,158,1.0,1.0,72,0.00,,---,0.00,VWS V14.01,2013-05-28 06:02:00,
2013-05-28 02:07:00,53.0,45.7,30.14,South,180,0.0,1.0,76,0.00,,---,0.00,VWS V14.01,2013-05-28 06:07:00,
2013-05-28 02:12:00,53.0,45.7,30.14,South,180,0.0,1.0,76,0.00,,---,0.00,VWS V14.01,2013-05-28 06:12:00,
2013-05-28 02:17:00,53.0,46.0,30.14,SSE,158,0.0,1.0,77,0.00,,---,0.00,VWS V14.01,2013-05-28 06:17:00,
2013-05-28 02:22:00,52.0,45.4,30.14,SSE,158,0.0,1.0,78,0.00,,---,0.00,VWS V14.01,2013-05-28 06:22:00,
2013-05-28 02:27:00,52.0,45.7,30.14,ESE,112,0.0,1.0,79,0.00,,---,0.00,VWS V14.01,2013-05-28 06:27:00,
2013-05-28 02:33:00,52.0,46.0,30.13,ENE,68,1.0,5.0,80,0.00,,---,0.00,VWS V14.01,2013-05-28 06:33:00,
2013-05-28 02:38:00,52.0,46.4,30.13,ENE,68,1.0,5.0,81,0.00,,---,0.00,VWS V14.01,2013-05-28 06:38:00,
2013-05-28 02:43:00,52.0,46.4,30.13,ENE,68,3.0,3.0,81,0.00,,---,0.00,VWS V14.01,2013-05-28 06:43:00,
2013-05-28 02:48:00,51.0,45.7,30.12,ENE,68,5.0,6.0,82,0.01,,---,0.01,VWS V14.01,2013-05-28 06:48:00,
2013-05-28 02:53:00,51.0,45.7,30.12,ESE,112,3.0,6.0,82,0.01,,---,0.01,VWS V14.01,2013-05-28 06:53:00,
2013-05-28 02:58:00,51.0,46.0,30.12,ESE,112,1.0,6.0,83,0.01,,---,0.01,VWS V14.01,2013-05-28 06:58:00,
2013-05-28 03:03:00,51.0,46.3,30.11,East,90,1.0,3.0,84,0.01,,---,0.01,VWS V14.01,2013-05-28 07:03:00,
2013-05-28 03:08:00,51.0,46.7,30.10,ENE,68,2.0,4.0,85,0.02,,---,0.02,VWS V14.01,2013-05-28 07:08:00,
2013-05-28 03:13:00,51.0,47.0,30.10,ENE,68,2.0,6.0,86,0.02,,---,0.02,VWS V14.01,2013-05-28 07:13:00,
2013-05-28 03:18:00,50.0,46.0,30.10,East,90,2.0,6.0,86,0.02,,---,0.02,VWS V14.01,2013-05-28 07:18:00,
2013-05-28 03:23:00,50.0,46.3,30.09,East,90,5.0,8.0,87,0.02,,---,0.02,VWS V14.01,2013-05-28 07:23:00,
2013-05-28 03:28:00,50.0,46.3,30.10,SE,135,3.0,8.0,87,0.02,,---,0.02,VWS V14.01,2013-05-28 07:28:00,
2013-05-28 03:33:00,50.0,46.6,30.10,SE,135,1.0,8.0,88,0.02,,---,0.02,VWS V14.01,2013-05-28 07:33:00,
2013-05-28 03:39:00,50.0,46.6,30.10,NE,45,1.0,8.0,88,0.02,,---,0.02,VWS V14.01,2013-05-28 07:39:00,
2013-05-28 03:44:00,50.0,46.9,30.09,East,90,2.0,6.0,89,0.02,,---,0.02,VWS V14.01,2013-05-28 07:44:00,
2013-05-28 03:49:00,50.0,46.9,30.09,ESE,112,1.0,6.0,89,0.02,,---,0.02,VWS V14.01,2013-05-28 07:49:00,
2013-05-28 03:54:00,50.0,46.9,30.09,SE,135,1.0,6.0,89,0.02,,---,0.02,VWS V14.01,2013-05-28 07:54:00,
2013-05-28 03:59:00,50.0,46.9,30.09,SE,135,1.0,6.0,89,0.03,,---,0.03,VWS V14.01,2013-05-28 07:59:00,
2013-05-28 04:04:00,50.0,47.2,30.09,ESE,112,1.0,4.0,90,0.02,,---,0.03,VWS V14.01,2013-05-28 08:04:00,
2013-05-28 04:09:00,50.0,47.2,30.09,SE,135,3.0,5.0,90,0.02,,---,0.03,VWS V14.01,2013-05-28 08:09:00,
2013-05-28 04:14:00,50.0,47.2,30.09,SE,135,1.0,5.0,90,0.02,,---,0.03,VWS V14.01,2013-05-28 08:14:00,
2013-05-28 04:19:00,51.0,48.5,30.09,South,180,2.0,6.0,91,0.02,,---,0.03,VWS V14.01,2013-05-28 08:19:00,
2013-05-28 04:24:00,51.0,48.5,30.08,East,90,4.0,10.0,91,0.02,,---,0.04,VWS V14.01,2013-05-28 08:24:00,
2013-05-28 04:29:00,51.0,48.5,30.08,SE,135,2.0,10.0,91,0.02,,---,0.04,VWS V14.01,2013-05-28 08:29:00,
2013-05-28 04:34:00,51.0,48.8,30.09,SE,135,2.0,10.0,92,0.02,,---,0.04,VWS V14.01,2013-05-28 08:34:00,
2013-05-28 04:39:00,51.0,48.8,30.10,WSW,248,4.0,10.0,92,0.03,,---,0.05,VWS V14.01,2013-05-28 08:39:00,
2013-05-28 04:45:00,51.0,48.8,30.10,WNW,292,0.0,6.0,92,0.03,,---,0.05,VWS V14.01,2013-05-28 08:45:00,
2013-05-28 04:50:00,51.0,48.8,30.08,ESE,112,2.0,6.0,92,0.05,,---,0.07,VWS V14.01,2013-05-28 08:50:00,
2013-05-28 04:55:00,51.0,49.0,30.08,SE,135,2.0,6.0,93,0.06,,---,0.08,VWS V14.01,2013-05-28 08:55:00,
2013-05-28 05:00:00,51.0,49.0,30.08,SE,135,2.0,6.0,93,0.07,,---,0.09,VWS V14.01,2013-05-28 09:00:00,
2013-05-28 05:05:00,51.0,49.0,30.08,ESE,112,3.0,6.0,93,0.07,,---,0.10,VWS V14.01,2013-05-28 09:05:00,
2013-05-28 05:10:00,51.0,49.0,30.08,ESE,112,1.0,6.0,93,0.08,,---,0.11,VWS V14.01,2013-05-28 09:10:00,
2013-05-28 05:15:00,51.0,49.0,30.08,SE,135,5.0,8.0,93,0.09,,---,0.12,VWS V14.01,2013-05-28 09:15:00,
2013-05-28 05:20:00,51.0,49.0,30.08,ESE,112,4.0,8.0,93,0.10,,---,0.13,VWS V14.01,2013-05-28 09:20:00,
2013-05-28 05:25:00,51.0,49.3,30.08,SE,135,0.0,3.0,94,0.11,,---,0.14,VWS V14.01,2013-05-28 09:25:00,
2013-05-28 05:30:00,51.0,49.3,30.08,NNE,22,1.0,3.0,94,0.12,,---,0.15,VWS V14.01,2013-05-28 09:30:00,
2013-05-28 05:35:00,51.0,49.3,30.08,East,90,1.0,4.0,94,0.14,,---,0.17,VWS V14.01,2013-05-28 09:35:00,
2013-05-28 05:40:00,51.0,49.3,30.08,ESE,112,1.0,5.0,94,0.15,,---,0.18,VWS V14.01,2013-05-28 09:40:00,
2013-05-28 05:45:00,51.0,49.3,30.07,ESE,112,2.0,5.0,94,0.15,,---,0.20,VWS V14.01,2013-05-28 09:45:00,
2013-05-28 05:51:00,51.0,49.3,30.07,ENE,68,3.0,5.0,94,0.17,,---,0.22,VWS V14.01,2013-05-28 09:51:00,
2013-05-28 05:56:00,51.0,49.6,30.07,ESE,112,2.0,6.0,95,0.18,,---,0.23,VWS V14.01,2013-05-28 09:56:00,
2013-05-28 06:01:00,51.0,49.6,30.07,ENE,68,2.0,6.0,95,0.20,,---,0.25,VWS V14.01,2013-05-28 10:01:00,
2013-05-28 06:06:00,51.0,49.6,30.07,ESE,112,6.0,6.0,95,0.19,,---,0.28,VWS V14.01,2013-05-28 10:06:00,
2013-05-28 06:11:00,52.0,50.6,30.07,East,90,3.0,6.0,95,0.20,,---,0.29,VWS V14.01,2013-05-28 10:11:00,
2013-05-28 06:16:00,52.0,50.6,30.07,SE,135,6.0,8.0,95,0.22,,---,0.31,VWS V14.01,2013-05-28 10:16:00,
2013-05-28 06:21:00,52.0,50.6,30.07,East,90,1.0,8.0,95,0.23,,---,0.32,VWS V14.01,2013-05-28 10:21:00,
2013-05-28 06:26:00,52.0,50.6,30.07,SE,135,0.0,9.0,95,0.21,,---,0.34,VWS V14.01,2013-05-28 10:26:00,
2013-05-28 06:31:00,52.0,50.6,30.07,SSE,158,5.0,10.0,95,0.22,,---,0.35,VWS V14.01,2013-05-28 10:31:00,
2013-05-28 06:36:00,52.0,50.6,30.06,SE,135,9.0,10.0,95,0.23,,---,0.36,VWS V14.01,2013-05-28 10:36:00,
2013-05-28 06:42:00,52.0,50.6,30.06,SE,135,6.0,7.0,95,0.19,,---,0.37,VWS V14.01,2013-05-28 10:42:00,
2013-05-28 06:47:00,52.0,50.6,30.06,NE,45,2.0,10.0,95,0.20,,---,0.38,VWS V14.01,2013-05-28 10:47:00,
2013-05-28 06:52:00,52.0,50.6,30.06,SE,135,9.0,13.0,95,0.22,,---,0.40,VWS V14.01,2013-05-28 10:52:00,
2013-05-28 06:57:00,52.0,50.6,30.05,ESE,112,5.0,15.0,95,0.23,,---,0.41,VWS V14.01,2013-05-28 10:57:00,
2013-05-28 07:02:00,53.0,51.6,30.05,East,90,11.0,14.0,95,0.16,,---,0.41,VWS V14.01,2013-05-28 11:02:00,
2013-05-28 07:07:00,53.0,51.6,30.05,East,90,7.0,18.0,95,0.17,,---,0.42,VWS V14.01,2013-05-28 11:07:00,
2013-05-28 07:12:00,53.0,51.6,30.05,SE,135,5.0,18.0,95,0.17,,---,0.42,VWS V14.01,2013-05-28 11:12:00,
2013-05-28 07:17:00,53.0,51.6,30.04,SE,135,11.0,18.0,95,0.18,,---,0.43,VWS V14.01,2013-05-28 11:17:00,
2013-05-28 07:22:00,53.0,51.6,30.04,SE,135,7.0,10.0,95,0.12,,---,0.44,VWS V14.01,2013-05-28 11:22:00,
2013-05-28 07:27:00,53.0,51.6,30.05,SE,135,5.0,12.0,95,0.13,,---,0.45,VWS V14.01,2013-05-28 11:27:00,
2013-05-28 07:33:00,53.0,51.6,30.04,ESE,112,2.0,13.0,95,0.15,,---,0.47,VWS V14.01,2013-05-28 11:33:00,
2013-05-28 07:38:00,53.0,51.6,30.05,East,90,6.0,13.0,95,0.17,,---,0.49,VWS V14.01,2013-05-28 11:38:00,
2013-05-28 07:43:00,53.0,51.9,30.05,SE,135,8.0,10.0,96,0.14,,---,0.51,VWS V14.01,2013-05-28 11:43:00,
2013-05-28 07:48:00,53.0,51.6,30.05,SE,135,9.0,10.0,95,0.16,,---,0.53,VWS V14.01,2013-05-28 11:48:00,
2013-05-28 07:53:00,53.0,51.9,30.05,SSE,158,9.0,13.0,96,0.18,,---,0.55,VWS V14.01,2013-05-28 11:53:00,
2013-05-28 07:58:00,53.0,51.9,30.05,ESE,112,6.0,13.0,96,0.19,,---,0.56,VWS V14.01,2013-05-28 11:58:00,
2013-05-28 08:03:00,53.0,51.9,30.05,South,180,3.0,8.0,96,0.15,,---,0.56,VWS V14.01,2013-05-28 12:03:00,
2013-05-28 08:08:00,53.0,51.9,30.06,SSE,158,7.0,13.0,96,0.17,,---,0.58,VWS V14.01,2013-05-28 12:08:00,
2013-05-28 08:13:00,53.0,51.9,30.05,SSE,158,5.0,13.0,96,0.18,,---,0.59,VWS V14.01,2013-05-28 12:13:00,
2013-05-28 08:18:00,54.0,52.9,30.06,SE,135,3.0,13.0,96,0.18,,---,0.59,VWS V14.01,2013-05-28 12:18:00,
2013-05-28 08:24:00,54.0,52.9,30.06,SSE,158,5.0,8.0,96,0.15,,---,0.59,VWS V14.01,2013-05-28 12:24:00,
2013-05-28 08:29:00,54.0,52.9,30.06,SSW,202,7.0,10.0,96,0.16,,---,0.60,VWS V14.01,2013-05-28 12:29:00,
2013-05-28 08:34:00,54.0,52.9,30.06,SE,135,6.0,10.0,96,0.16,,---,0.60,VWS V14.01,2013-05-28 12:34:00,
2013-05-28 08:39:00,54.0,52.9,30.06,SSW,202,2.0,10.0,96,0.16,,---,0.60,VWS V14.01,2013-05-28 12:39:00,
2013-05-28 08:44:00,54.0,52.9,30.06,SW,225,1.0,4.0,96,0.09,,---,0.60,VWS V14.01,2013-05-28 12:44:00,
2013-05-28 08:49:00,54.0,52.9,30.05,SSE,158,2.0,7.0,96,0.09,,---,0.60,VWS V14.01,2013-05-28 12:49:00,
2013-05-28 08:54:00,54.0,52.9,30.06,SSE,158,3.0,7.0,96,0.09,,---,0.60,VWS V14.01,2013-05-28 12:54:00,
2013-05-28 08:59:00,54.0,52.9,30.06,ESE,112,3.0,7.0,96,0.09,,---,0.60,VWS V14.01,2013-05-28 12:59:00,
2013-05-28 09:05:00,54.0,52.6,30.06,South,180,1.0,3.0,95,0.04,,---,0.60,VWS V14.01,2013-05-28 13:05:00,
2013-05-28 09:10:00,54.0,52.9,30.06,SSE,158,1.0,6.0,96,0.04,,---,0.60,VWS V14.01,2013-05-28 13:10:00,
2013-05-28 09:15:00,54.0,52.9,30.06,SSW,202,3.0,6.0,96,0.04,,---,0.60,VWS V14.01,2013-05-28 13:15:00,
2013-05-28 09:20:00,54.0,52.9,30.06,ESE,112,1.0,6.0,96,0.04,,---,0.60,VWS V14.01,2013-05-28 13:20:00,
2013-05-28 09:25:00,54.0,52.9,30.06,SE,135,2.0,4.0,96,0.01,,---,0.60,VWS V14.01,2013-05-28 13:25:00,
2013-05-28 09:30:00,54.0,52.6,30.06,ESE,112,2.0,5.0,95,0.02,,---,0.61,VWS V14.01,2013-05-28 13:30:00,
2013-05-28 09:35:00,55.0,53.9,30.06,SSE,158,6.0,8.0,96,0.03,,---,0.62,VWS V14.01,2013-05-28 13:35:00,
2013-05-28 09:40:00,55.0,53.9,30.06,SE,135,3.0,10.0,96,0.03,,---,0.62,VWS V14.01,2013-05-28 13:40:00,
2013-05-28 09:45:00,55.0,53.9,30.06,SSW,202,3.0,6.0,96,0.02,,---,0.62,VWS V14.01,2013-05-28 13:45:00,
2013-05-28 09:51:00,55.0,53.9,30.06,SE,135,4.0,10.0,96,0.03,,---,0.63,VWS V14.01,2013-05-28 13:51:00,
2013-05-28 09:56:00,55.0,53.9,30.06,SE,135,3.0,10.0,96,0.03,,---,0.63,VWS V14.01,2013-05-28 13:56:00,
2013-05-28 10:01:00,55.0,53.9,30.08,NE,45,1.0,10.0,96,0.03,,---,0.63,VWS V14.01,2013-05-28 14:01:00,
2013-05-28 10:06:00,55.0,53.9,30.06,ENE,68,1.0,3.0,96,0.03,,---,0.63,VWS V14.01,2013-05-28 14:06:00,
2013-05-28 10:11:00,55.0,53.9,30.06,NE,45,0.0,3.0,96,0.03,,---,0.63,VWS V14.01,2013-05-28 14:11:00,
2013-05-28 10:16:00,55.0,53.9,30.06,ENE,68,0.0,3.0,96,0.03,,---,0.63,VWS V14.01,2013-05-28 14:16:00,
2013-05-28 10:21:00,56.0,54.9,30.06,ESE,112,1.0,2.0,96,0.03,,---,0.63,VWS V14.01,2013-05-28 14:21:00,
2013-05-28 10:26:00,56.0,54.9,30.06,South,180,5.0,5.0,96,0.03,,---,0.63,VWS V14.01,2013-05-28 14:26:00,
2013-05-28 10:31:00,56.0,54.9,30.06,SE,135,1.0,5.0,96,0.03,,---,0.63,VWS V14.01,2013-05-28 14:31:00,
2013-05-28 10:36:00,56.0,54.9,30.06,SE,135,0.0,5.0,96,0.03,,---,0.63,VWS V14.01,2013-05-28 14:36:00,
2013-05-28 10:42:00,56.0,54.9,30.07,SSE,158,2.0,2.0,96,0.01,,---,0.63,VWS V14.01,2013-05-28 14:42:00,
2013-05-28 10:47:00,56.0,54.9,30.07,SE,135,3.0,5.0,96,0.01,,---,0.63,VWS V14.01,2013-05-28 14:47:00,
2013-05-28 10:52:00,56.0,54.9,30.07,SSE,158,4.0,5.0,96,0.01,,---,0.63,VWS V14.01,2013-05-28 14:52:00,
2013-05-28 10:57:00,56.0,54.9,30.07,South,180,3.0,5.0,96,0.01,,---,0.63,VWS V14.01,2013-05-28 14:57:00,
2013-05-28 11:02:00,57.0,55.9,30.07,SE,135,1.0,3.0,96,0.00,,---,0.63,VWS V14.01,2013-05-28 15:02:00,
2013-05-28 11:07:00,57.0,55.9,30.06,SSE,158,1.0,3.0,96,0.00,,---,0.63,VWS V14.01,2013-05-28 15:07:00,
2013-05-28 11:12:00,57.0,55.9,30.06,South,180,3.0,5.0,96,0.00,,---,0.63,VWS V14.01,2013-05-28 15:12:00,
2013-05-28 11:17:00,58.0,56.9,30.06,SSE,158,1.0,5.0,96,0.00,,---,0.63,VWS V14.01,2013-05-28 15:17:00,
2013-05-28 11:22:00,58.0,56.9,30.06,SSW,202,1.0,4.0,96,0.00,,---,0.63,VWS V14.01,2013-05-28 15:22:00,
2013-05-28 11:28:00,59.0,57.9,30.06,SE,135,3.0,5.0,96,0.00,,---,0.63,VWS V14.01,2013-05-28 15:28:00,
2013-05-28 11:33:00,59.0,57.6,30.06,SW,225,1.0,6.0,95,0.00,,---,0.63,VWS V14.01,2013-05-28 15:33:00,
2013-05-28 11:38:00,59.0,57.6,30.05,SSE,158,2.0,6.0,95,0.00,,---,0.63,VWS V14.01,2013-05-28 15:38:00,
2013-05-28 11:43:00,59.0,57.3,30.06,SSW,202,4.0,7.0,94,0.00,,---,0.63,VWS V14.01,2013-05-28 15:43:00,
2013-05-28 11:48:00,60.0,58.0,30.05,SSE,158,3.0,7.0,93,0.00,,---,0.63,VWS V14.01,2013-05-28 15:48:00,
2013-05-28 11:53:00,60.0,58.0,30.05,SSW,202,6.0,8.0,93,0.00,,---,0.63,VWS V14.01,2013-05-28 15:53:00,
2013-05-28 11:58:00,60.0,58.0,30.05,SW,225,2.0,8.0,93,0.00,,---,0.63,VWS V14.01,2013-05-28 15:58:00,
2013-05-28 12:03:00,60.0,57.7,30.05,SSE,158,1.0,5.0,92,0.00,,---,0.63,VWS V14.01,2013-05-28 16:03:00,
2013-05-28 12:08:00,61.0,58.4,30.05,SSW,202,1.0,5.0,91,0.00,,---,0.63,VWS V14.01,2013-05-28 16:08:00,
2013-05-28 12:14:00,61.0,58.4,30.05,WSW,248,2.0,5.0,91,0.00,,---,0.63,VWS V14.01,2013-05-28 16:14:00,
2013-05-28 12:19:00,62.0,59.3,30.05,South,180,3.0,5.0,91,0.00,,---,0.63,VWS V14.01,2013-05-28 16:19:00,
2013-05-28 12:24:00,62.0,59.3,30.06,SSE,158,2.0,6.0,91,0.00,,---,0.63,VWS V14.01,2013-05-28 16:24:00,
2013-05-28 12:29:00,62.0,59.0,30.05,SSW,202,4.0,6.0,90,0.00,,---,0.63,VWS V14.01,2013-05-28 16:29:00,
2013-05-28 12:34:00,62.0,59.0,30.05,SSW,202,5.0,6.0,90,0.00,,---,0.63,VWS V14.01,2013-05-28 16:34:00,
2013-05-28 12:39:00,63.0,60.0,30.05,WNW,292,1.0,6.0,90,0.00,,---,0.63,VWS V14.01,2013-05-28 16:39:00,
2013-05-28 12:44:00,63.0,59.7,30.06,SSW,202,5.0,8.0,89,0.00,,---,0.63,VWS V14.01,2013-05-28 16:44:00,
2013-05-28 12:49:00,63.0,59.4,30.06,West,270,5.0,8.0,88,0.00,,---,0.63,VWS V14.01,2013-05-28 16:49:00,
2013-05-28 12:54:00,64.0,60.4,30.06,SW,225,4.0,8.0,88,0.00,,---,0.63,VWS V14.01,2013-05-28 16:54:00,
2013-05-28 13:00:00,63.0,59.1,30.06,South,180,5.0,8.0,87,0.00,,---,0.63,VWS V14.01,2013-05-28 17:00:00,
2013-05-28 13:05:00,64.0,60.4,30.06,West,270,4.0,8.0,88,0.00,,---,0.63,VWS V14.01,2013-05-28 17:05:00,
2013-05-28 13:10:00,64.0,60.1,30.05,SSE,158,1.0,8.0,87,0.00,,---,0.63,VWS V14.01,2013-05-28 17:10:00,
2013-05-28 13:15:00,64.0,60.1,30.06,SW,225,5.0,8.0,87,0.00,,---,0.63,VWS V14.01,2013-05-28 17:15:00,
2013-05-28 13:20:00,64.0,59.7,30.06,SSE,158,3.0,8.0,86,0.00,,---,0.63,VWS V14.01,2013-05-28 17:20:00,
2013-05-28 13:25:00,64.0,59.7,30.06,SSW,202,3.0,6.0,86,0.00,,---,0.63,VWS V14.01,2013-05-28 17:25:00,
2013-05-28 13:30:00,65.0,60.7,30.06,SSE,158,5.0,8.0,86,0.00,,---,0.63,VWS V14.01,2013-05-28 17:30:00,
2013-05-28 13:35:00,65.0,60.7,30.06,SW,225,3.0,8.0,86,0.00,,---,0.63,VWS V14.01,2013-05-28 17:35:00,
2013-05-28 13:40:00,65.0,60.7,30.05,SSW,202,3.0,8.0,86,0.00,,---,0.63,VWS V14.01,2013-05-28 17:40:00,
2013-05-28 13:46:00,66.0,61.4,30.05,South,180,6.0,6.0,85,0.00,,---,0.63,VWS V14.01,2013-05-28 17:46:00,
2013-05-28 13:51:00,66.0,61.0,30.04,South,180,3.0,7.0,84,0.00,,---,0.63,VWS V14.01,2013-05-28 17:51:00,
2013-05-28 13:56:00,67.0,62.0,30.04,SW,225,3.0,7.0,84,0.00,,---,0.63,VWS V14.01,2013-05-28 17:56:00,
2013-05-28 14:01:00,68.0,63.0,30.04,WSW,248,4.0,7.0,84,0.00,,---,0.63,VWS V14.01,2013-05-28 18:01:00,
2013-05-28 14:06:00,68.0,62.0,30.04,SW,225,3.0,9.0,81,0.00,,---,0.63,VWS V14.01,2013-05-28 18:06:00,
2013-05-28 14:11:00,68.0,61.2,30.04,SW,225,4.0,10.0,79,0.00,,---,0.63,VWS V14.01,2013-05-28 18:11:00,
2013-05-28 14:16:00,68.0,60.9,30.04,WSW,248,6.0,12.0,78,0.00,,---,0.63,VWS V14.01,2013-05-28 18:16:00,
2013-05-28 14:21:00,68.0,61.6,30.04,SSW,202,5.0,6.0,80,0.00,,---,0.63,VWS V14.01,2013-05-28 18:21:00,
2013-05-28 14:26:00,68.0,61.6,30.04,SW,225,7.0,12.0,80,0.00,,---,0.63,VWS V14.01,2013-05-28 18:26:00,
2013-05-28 14:32:00,68.0,61.6,30.04,SW,225,5.0,12.0,80,0.00,,---,0.63,VWS V14.01,2013-05-28 18:32:00,
2013-05-28 14:37:00,68.0,61.6,30.04,SW,225,3.0,12.0,80,0.00,,---,0.63,VWS V14.01,2013-05-28 18:37:00,
2013-05-28 14:42:00,68.0,61.6,30.04,SW,225,8.0,9.0,80,0.00,,---,0.63,VWS V14.01,2013-05-28 18:42:00,
2013-05-28 14:47:00,69.0,62.6,30.04,SW,225,6.0,9.0,80,0.00,,---,0.63,VWS V14.01,2013-05-28 18:47:00,
2013-05-28 14:52:00,69.0,61.9,30.04,WSW,248,11.0,11.0,78,0.00,,---,0.63,VWS V14.01,2013-05-28 18:52:00,
2013-05-28 14:57:00,69.0,61.1,30.05,WSW,248,6.0,15.0,76,0.00,,---,0.63,VWS V14.01,2013-05-28 18:57:00,
2013-05-28 15:02:00,69.0,61.5,30.04,WSW,248,7.0,8.0,77,0.00,,---,0.63,VWS V14.01,2013-05-28 19:02:00,
2013-05-28 15:07:00,69.0,61.5,30.04,SW,225,8.0,10.0,77,0.00,,---,0.63,VWS V14.01,2013-05-28 19:07:00,
2013-05-28 15:13:00,69.0,61.1,30.03,SW,225,4.0,10.0,76,0.00,,---,0.63,VWS V14.01,2013-05-28 19:13:00,
2013-05-28 15:18:00,69.0,61.1,30.03,South,180,3.0,10.0,76,0.00,,---,0.63,VWS V14.01,2013-05-28 19:18:00,
2013-05-28 15:23:00,69.0,61.5,30.03,WSW,248,3.0,7.0,77,0.00,,---,0.63,VWS V14.01,2013-05-28 19:23:00,
2013-05-28 15:28:00,70.0,62.1,30.02,ESE,112,1.0,7.0,76,0.00,,---,0.63,VWS V14.01,2013-05-28 19:28:00,
2013-05-28 15:33:00,70.0,62.5,30.02,SSW,202,2.0,7.0,77,0.00,,---,0.63,VWS V14.01,2013-05-28 19:33:00,
2013-05-28 15:38:00,71.0,61.5,30.02,WSW,248,3.0,7.0,72,0.00,,---,0.63,VWS V14.01,2013-05-28 19:38:00,
2013-05-28 15:43:00,71.0,61.1,30.02,SW,225,3.0,8.0,71,0.00,,---,0.63,VWS V14.01,2013-05-28 19:43:00,
2013-05-28 15:48:00,71.0,60.7,30.02,SW,225,2.0,8.0,70,0.00,,---,0.63,VWS V14.01,2013-05-28 19:48:00,
2013-05-28 15:53:00,72.0,61.7,30.02,South,180,3.0,8.0,70,0.00,,---,0.63,VWS V14.01,2013-05-28 19:53:00,
2013-05-28 15:58:00,73.0,63.0,30.01,SE,135,4.0,8.0,71,0.00,,---,0.63,VWS V14.01,2013-05-28 19:58:00,
2013-05-28 16:04:00,72.0,61.3,30.01,SE,135,6.0,8.0,69,0.00,,---,0.63,VWS V14.01,2013-05-28 20:04:00,
2013-05-28 16:09:00,72.0,61.7,30.03,South,180,5.0,8.0,70,0.00,,---,0.63,VWS V14.01,2013-05-28 20:09:00,
2013-05-28 16:14:00,72.0,61.7,30.03,South,180,6.0,8.0,70,0.00,,---,0.63,VWS V14.01,2013-05-28 20:14:00,
2013-05-28 16:19:00,72.0,61.7,30.03,SE,135,4.0,8.0,70,0.00,,---,0.63,VWS V14.01,2013-05-28 20:19:00,
2013-05-28 16:24:00,72.0,62.1,30.01,South,180,5.0,8.0,71,0.00,,---,0.63,VWS V14.01,2013-05-28 20:24:00,
2013-05-28 16:29:00,72.0,61.7,30.01,SSE,158,8.0,8.0,70,0.00,,---,0.63,VWS V14.01,2013-05-28 20:29:00,
2013-05-28 16:34:00,72.0,61.7,30.01,SSE,158,8.0,10.0,70,0.00,,---,0.63,VWS V14.01,2013-05-28 20:34:00,
2013-05-28 16:39:00,72.0,61.7,30.01,South,180,6.0,10.0,70,0.00,,---,0.63,VWS V14.01,2013-05-28 20:39:00,
2013-05-28 16:44:00,72.0,62.1,30.01,SSW,202,3.0,6.0,71,0.00,,---,0.63,VWS V14.01,2013-05-28 20:44:00,
2013-05-28 16:49:00,72.0,61.7,30.01,SSW,202,10.0,13.0,70,0.00,,---,0.63,VWS V14.01,2013-05-28 20:49:00,
2013-05-28 16:54:00,72.0,62.1,30.01,SSE,158,5.0,13.0,71,0.00,,---,0.63,VWS V14.01,2013-05-28 20:54:00,
2013-05-28 17:00:00,72.0,62.1,30.01,SE,135,7.0,13.0,71,0.00,,---,0.63,VWS V14.01,2013-05-28 21:00:00,
2013-05-28 17:05:00,73.0,63.0,30.00,SW,225,3.0,12.0,71,0.00,,---,0.63,VWS V14.01,2013-05-28 21:05:00,
2013-05-28 17:10:00,73.0,63.0,30.00,SSW,202,6.0,12.0,71,0.00,,---,0.63,VWS V14.01,2013-05-28 21:10:00,
2013-05-28 17:15:00,73.0,62.2,30.00,SSW,202,6.0,13.0,69,0.00,,---,0.63,VWS V14.01,2013-05-28 21:15:00,
2013-05-28 17:20:00,72.0,61.7,30.01,SSW,202,6.0,13.0,70,0.00,,---,0.63,VWS V14.01,2013-05-28 21:20:00,
2013-05-28 17:25:00,72.0,62.1,30.00,SE,135,5.0,10.0,71,0.00,,---,0.63,VWS V14.01,2013-05-28 21:25:00,
2013-05-28 17:30:00,72.0,62.1,30.00,SSE,158,8.0,10.0,71,0.00,,---,0.63,VWS V14.01,2013-05-28 21:30:00,
2013-05-28 17:35:00,72.0,62.5,30.00,SSE,158,6.0,13.0,72,0.00,,---,0.63,VWS V14.01,2013-05-28 21:35:00,
2013-05-28 17:40:00,72.0,62.5,30.00,SSE,158,8.0,13.0,72,0.00,,---,0.63,VWS V14.01,2013-05-28 21:40:00,
2013-05-28 17:45:00,72.0,62.5,30.00,SSE,158,6.0,13.0,72,0.00,,---,0.63,VWS V14.01,2013-05-28 21:45:00,
2013-05-28 17:51:00,72.0,62.9,30.00,South,180,3.0,13.0,73,0.00,,---,0.63,VWS V14.01,2013-05-28 21:51:00,
2013-05-28 17:56:00,71.0,61.9,29.99,SE,135,7.0,14.0,73,0.00,,---,0.63,VWS V14.01,2013-05-28 21:56:00,
2013-05-28 18:01:00,71.0,62.3,29.99,SSE,158,6.0,14.0,74,0.00,,---,0.63,VWS V14.01,2013-05-28 22:01:00,
2013-05-28 18:06:00,71.0,63.1,29.98,South,180,7.0,10.0,76,0.00,,---,0.63,VWS V14.01,2013-05-28 22:06:00,
2013-05-28 18:11:00,71.0,63.1,29.97,SE,135,6.0,12.0,76,0.00,,---,0.63,VWS V14.01,2013-05-28 22:11:00,
2013-05-28 18:16:00,71.0,63.1,29.97,SSE,158,5.0,12.0,76,0.00,,---,0.63,VWS V14.01,2013-05-28 22:16:00,
2013-05-28 18:21:00,71.0,63.1,29.98,SSW,202,4.0,5.0,76,0.00,,---,0.63,VWS V14.01,2013-05-28 22:21:00,
2013-05-28 18:26:00,71.0,63.1,29.98,South,180,6.0,10.0,76,0.00,,---,0.63,VWS V14.01,2013-05-28 22:26:00,
2013-05-28 18:31:00,71.0,63.1,29.98,SE,135,5.0,10.0,76,0.00,,---,0.63,VWS V14.01,2013-05-28 22:31:00,
2013-05-28 18:36:00,71.0,63.1,29.98,SSE,158,10.0,11.0,76,0.00,,---,0.63,VWS V14.01,2013-05-28 22:36:00,
2013-05-28 18:42:00,70.0,62.1,29.97,SSE,158,6.0,8.0,76,0.00,,---,0.63,VWS V14.01,2013-05-28 22:42:00,
2013-05-28 18:47:00,70.0,62.5,29.97,South,180,6.0,10.0,77,0.00,,---,0.63,VWS V14.01,2013-05-28 22:47:00,
2013-05-28 18:52:00,70.0,62.5,29.97,SE,135,6.0,10.0,77,0.00,,---,0.63,VWS V14.01,2013-05-28 22:52:00,
2013-05-28 18:57:00,70.0,62.5,29.97,South,180,9.0,10.0,77,0.00,,---,0.63,VWS V14.01,2013-05-28 22:57:00,
2013-05-28 19:02:00,70.0,62.5,29.97,South,180,4.0,7.0,77,0.00,,---,0.63,VWS V14.01,2013-05-28 23:02:00,
2013-05-28 19:07:00,70.0,62.8,29.97,SSE,158,6.0,8.0,78,0.00,,---,0.63,VWS V14.01,2013-05-28 23:07:00,
2013-05-28 19:12:00,70.0,62.8,29.97,SSE,158,4.0,10.0,78,0.00,,---,0.63,VWS V14.01,2013-05-28 23:12:00,
2013-05-28 19:17:00,69.0,62.2,29.97,South,180,5.0,10.0,79,0.00,,---,0.63,VWS V14.01,2013-05-28 23:17:00,
2013-05-28 19:22:00,69.0,62.6,29.99,SSW,202,7.0,10.0,80,0.00,,---,0.63,VWS V14.01,2013-05-28 23:22:00,
2013-05-28 19:27:00,69.0,62.6,29.99,SSE,158,4.0,10.0,80,0.00,,---,0.63,VWS V14.01,2013-05-28 23:27:00,
2013-05-28 19:33:00,69.0,62.9,30.00,SSE,158,5.0,10.0,81,0.00,,---,0.63,VWS V14.01,2013-05-28 23:33:00,
2013-05-28 19:38:00,69.0,63.6,30.00,SSE,158,4.0,10.0,83,0.01,,---,0.64,VWS V14.01,2013-05-28 23:38:00,
2013-05-28 19:43:00,69.0,63.6,30.00,SSE,158,4.0,4.0,83,0.01,,---,0.64,VWS V14.01,2013-05-28 23:43:00,
2013-05-28 19:48:00,69.0,64.0,30.00,South,180,2.0,4.0,84,0.02,,---,0.65,VWS V14.01,2013-05-28 23:48:00,
2013-05-28 19:53:00,68.0,63.3,30.00,SSE,158,1.0,4.0,85,0.03,,---,0.66,VWS V14.01,2013-05-28 23:53:00,
2013-05-28 19:58:00,68.0,63.7,29.98,SE,135,1.0,4.0,86,0.04,,---,0.67,VWS V14.01,2013-05-28 23:58:00,
2013-05-28 20:03:00,68.0,64.0,29.98,SSE,158,4.0,4.0,87,0.05,,---,0.68,VWS V14.01,2013-05-29 00:03:00,
2013-05-28 20:08:00,68.0,64.3,29.98,SE,135,3.0,5.0,88,0.07,,---,0.70,VWS V14.01,2013-05-29 00:08:00,
2013-05-28 20:13:00,67.0,63.7,29.98,SE,135,4.0,6.0,89,0.10,,---,0.73,VWS V14.01,2013-05-29 00:13:00,
2013-05-28 20:18:00,67.0,63.7,29.98,SE,135,6.0,7.0,89,0.14,,---,0.77,VWS V14.01,2013-05-29 00:18:00,
2013-05-28 20:24:00,67.0,64.0,29.98,SE,135,6.0,6.0,90,0.15,,---,0.78,VWS V14.01,2013-05-29 00:24:00,
2013-05-28 20:29:00,67.0,64.3,29.98,East,90,1.0,6.0,91,0.15,,---,0.78,VWS V14.01,2013-05-29 00:29:00,
2013-05-28 20:34:00,67.0,64.3,29.97,SSE,158,5.0,6.0,91,0.16,,---,0.79,VWS V14.01,2013-05-29 00:34:00,
2013-05-28 20:39:00,66.0,63.3,29.97,SE,135,5.0,6.0,91,0.17,,---,0.80,VWS V14.01,2013-05-29 00:39:00,
2013-05-28 20:44:00,66.0,63.6,29.96,SE,135,6.0,9.0,92,0.17,,---,0.81,VWS V14.01,2013-05-29 00:44:00,
2013-05-28 20:49:00,66.0,63.6,29.95,SE,135,8.0,10.0,92,0.18,,---,0.82,VWS V14.01,2013-05-29 00:49:00,
2013-05-28 20:54:00,66.0,63.9,29.96,SE,135,6.0,11.0,93,0.21,,---,0.85,VWS V14.01,2013-05-29 00:54:00,
2013-05-28 20:59:00,66.0,63.9,29.97,SSE,158,3.0,11.0,93,0.22,,---,0.86,VWS V14.01,2013-05-29 00:59:00,
2013-05-28 21:04:00,66.0,64.2,29.98,West,270,1.0,6.0,94,0.20,,---,0.88,VWS V14.01,2013-05-29 01:04:00,
2013-05-28 21:09:00,66.0,64.2,30.01,ENE,68,3.0,12.0,94,0.22,,---,0.90,VWS V14.01,2013-05-29 01:09:00,
2013-05-28 21:14:00,64.0,61.6,30.01,NW,315,4.0,17.0,92,0.28,,---,0.96,VWS V14.01,2013-05-29 01:14:00,
2013-05-28 21:19:00,64.0,61.9,30.01,WNW,292,3.0,17.0,93,0.34,,---,1.02,VWS V14.01,2013-05-29 01:19:00,
2013-05-28 21:24:00,64.0,62.2,30.02,WNW,292,8.0,17.0,94,0.31,,---,1.08,VWS V14.01,2013-05-29 01:24:00,
2013-05-28 21:30:00,64.0,62.5,30.02,WNW,292,6.0,17.0,95,0.37,,---,1.14,VWS V14.01,2013-05-29 01:30:00,
2013-05-28 21:35:00,64.0,62.5,30.03,NNW,338,5.0,17.0,95,0.56,,---,1.33,VWS V14.01,2013-05-29 01:35:00,
2013-05-28 21:40:00,64.0,62.5,30.03,NW,315,3.0,17.0,95,0.61,,---,1.38,VWS V14.01,2013-05-29 01:40:00,
2013-05-28 21:45:00,64.0,62.8,30.04,WNW,292,10.0,11.0,96,0.65,,---,1.45,VWS V14.01,2013-05-29 01:45:00,
2013-05-28 21:50:00,63.0,61.8,30.03,WSW,248,11.0,13.0,96,0.78,,---,1.58,VWS V14.01,2013-05-29 01:50:00,
2013-05-28 21:55:00,63.0,61.8,30.02,WSW,248,2.0,13.0,96,0.95,,---,1.75,VWS V14.01,2013-05-29 01:55:00,
2013-05-28 22:00:00,63.0,61.8,30.00,SSE,158,7.0,13.0,96,0.99,,---,1.79,VWS V14.01,2013-05-29 02:00:00,
2013-05-28 22:05:00,63.0,61.8,30.00,SSE,158,4.0,8.0,96,0.94,,---,1.81,VWS V14.01,2013-05-29 02:05:00,
2013-05-28 22:10:00,63.0,61.8,29.99,SSE,158,6.0,8.0,96,0.95,,---,1.82,VWS V14.01,2013-05-29 02:10:00,
2013-05-28 22:15:00,63.0,61.8,29.99,SSE,158,1.0,8.0,96,0.95,,---,1.82,VWS V14.01,2013-05-29 02:15:00,
2013-05-28 22:20:00,63.0,61.8,30.00,NNE,22,3.0,8.0,96,0.96,,---,1.83,VWS V14.01,2013-05-29 02:20:00,
2013-05-28 22:26:00,63.0,61.8,30.00,NE,45,3.0,6.0,96,0.80,,---,1.85,VWS V14.01,2013-05-29 02:26:00,
2013-05-28 22:31:00,63.0,61.8,30.01,NNE,22,1.0,6.0,96,0.81,,---,1.86,VWS V14.01,2013-05-29 02:31:00,
2013-05-28 22:36:00,63.0,62.1,30.02,WNW,292,1.0,6.0,97,0.81,,---,1.86,VWS V14.01,2013-05-29 02:36:00,
2013-05-28 22:41:00,63.0,62.1,30.03,South,180,3.0,6.0,97,0.87,,---,1.92,VWS V14.01,2013-05-29 02:41:00,
2013-05-28 22:46:00,63.0,62.1,30.03,South,180,5.0,8.0,97,0.54,,---,1.94,VWS V14.01,2013-05-29 02:46:00,
2013-05-28 22:51:00,63.0,62.1,30.03,SW,225,5.0,8.0,97,0.55,,---,1.95,VWS V14.01,2013-05-29 02:51:00,
2013-05-28 22:56:00,63.0,62.1,30.03,SW,225,6.0,8.0,97,0.56,,---,1.96,VWS V14.01,2013-05-29 02:56:00,
2013-05-28 23:01:00,63.0,62.1,30.05,WNW,292,3.0,3.0,97,0.16,,---,1.96,VWS V14.01,2013-05-29 03:01:00,
2013-05-28 23:06:00,62.0,60.8,30.03,SSE,158,3.0,8.0,96,0.20,,---,2.00,VWS V14.01,2013-05-29 03:06:00,
2013-05-28 23:11:00,62.0,60.8,30.02,East,90,3.0,10.0,96,0.21,,---,2.01,VWS V14.01,2013-05-29 03:11:00,
2013-05-28 23:16:00,62.0,61.1,30.04,NNE,22,1.0,10.0,97,0.22,,---,2.02,VWS V14.01,2013-05-29 03:16:00,
2013-05-28 23:21:00,62.0,61.1,30.05,NW,315,2.0,6.0,97,0.18,,---,2.02,VWS V14.01,2013-05-29 03:21:00,
2013-05-28 23:27:00,62.0,61.1,30.05,WNW,292,1.0,6.0,97,0.19,,---,2.03,VWS V14.01,2013-05-29 03:27:00,
2013-05-28 23:32:00,62.0,61.1,30.06,WNW,292,5.0,10.0,97,0.20,,---,2.04,VWS V14.01,2013-05-29 03:32:00,
2013-05-28 23:37:00,62.0,61.1,30.07,West,270,5.0,11.0,97,0.21,,---,2.05,VWS V14.01,2013-05-29 03:37:00,
2013-05-28 23:42:00,62.0,61.1,30.05,WSW,248,3.0,5.0,97,0.15,,---,2.08,VWS V14.01,2013-05-29 03:42:00,
2013-05-28 23:47:00,62.0,61.1,30.05,SSW,202,2.0,6.0,97,0.17,,---,2.10,VWS V14.01,2013-05-29 03:47:00,
2013-05-28 23:52:00,62.0,61.1,30.05,South,180,2.0,6.0,97,0.19,,---,2.12,VWS V14.01,2013-05-29 03:52:00,
2013-05-28 23:57:00,62.0,61.1,30.04,SE,135,2.0,6.0,97,0.22,,---,2.15,VWS V14.01,2013-05-29 03:57:00,